Вернуться в каталог

SL-8 DEB

АктивенLEO
NORAD 25563·DEBRIS·🇷🇺 Russia

Запущен Dec 10, 1990 с Plesetsk Cosmodrome

Loading…

Ближайшие Пролёты (ближайшие 24 часа)

TLE

СвежийSource: Space-Track

Эпоха: Sep 14, 2026, 06:48 UTC

1 25563U 90111D   26257.28386780  .00000596  00000-0  18089-3 0  9996
2 25563  74.0462 108.8423 0019632 178.5294 304.4832 14.44219083871296

Отслеживайте SL-8 DEB в реальном времени с AllMySat

Download on the App Store